Theta_e
317 317 317 317 316 316 315 315 315 314 315 314 313 313 312 312 311 311 310 309 308 308 307 306 306 305 305 303 303 303 303 303 302 303 304 303 303 302 301 301 300 299 299 298 296 295 294 293 293 293 292 292 291 290 289 288 287 287 288 288 288 287 286 286 286 285 285 284 285
316 316 316 317 317 315 313 313 313 313 313 313 313 313 312 311 311 311 310 309 309 308 308 307 306 305 304 304 304 304 304 303 302 302 303 303 302 301 300 300 299 299 298 297 296 295 294 292 292 292 292 291 290 289 288 287 287 287 287 287 287 286 286 286 286 286 285 285 285
316 316 315 315 314 314 313 312 311 310 310 311 311 311 311 311 311 310 310 309 309 308 307 307 307 306 305 304 304 304 304 303 302 302 302 302 301 300 300 299 298 297 297 297 295 295 294 292 293 293 293 292 290 290 289 287 287 287 287 287 287 286 287 287 286 285 285 285 284
315 315 314 314 313 312 313 313 311 310 309 310 309 309 310 310 310 310 309 309 307 307 307 307 307 306 306 305 304 303 304 304 302 301 301 301 300 299 298 297 297 296 296 295 294 293 293 292 293 294 293 291 290 290 290 288 287 288 288 287 287 287 287 287 286 286 285 285 284
314 314 315 315 314 313 314 313 312 311 310 310 309 309 310 310 309 308 308 308 308 308 308 307 307 306 305 304 303 302 302 303 303 302 301 300 299 298 297 296 296 295 295 294 294 293 293 291 293 293 292 291 291 291 290 288 287 288 288 288 287 287 287 287 286 286 285 285 284
313 313 313 314 313 313 313 313 312 311 311 311 311 310 310 310 309 308 308 308 308 307 306 306 306 306 305 303 302 302 302 302 303 302 301 300 299 297 296 296 295 295 295 294 293 293 292 292 293 293 292 291 290 290 289 288 288 288 288 288 287 287 287 286 286 285 285 285 284
312 312 312 313 312 313 313 311 312 312 311 310 310 310 310 310 309 308 308 308 307 306 305 306 305 305 304 303 302 302 302 302 302 302 301 300 299 297 296 296 295 295 295 294 293 293 292 292 293 293 293 292 291 289 288 287 287 288 288 288 287 287 286 285 285 285 285 285 284
310 311 311 311 312 312 312 312 312 311 311 311 311 311 310 310 309 308 307 306 306 305 305 306 304 304 303 303 303 303 303 302 302 302 301 300 299 297 296 296 295 295 295 294 294 293 292 292 293 293 292 292 291 289 288 286 287 287 287 287 287 286 285 285 285 285 285 285 284
308 309 309 310 311 311 311 311 312 312 312 312 311 311 310 310 308 307 307 306 306 305 305 305 304 303 303 303 303 303 303 303 302 302 301 300 299 298 297 296 296 295 295 294 294 293 292 292 293 292 292 292 291 289 288 286 287 286 286 286 286 286 285 284 284 284 284 284 284
307 308 308 308 309 310 311 310 311 311 311 311 310 310 310 311 309 308 307 307 306 305 304 304 304 303 303 303 303 303 303 303 303 302 301 301 300 299 298 298 296 296 295 294 294 293 292 292 292 292 291 291 290 289 287 286 286 286 286 286 286 286 285 284 284 284 284 284 285
306 306 306 307 307 308 309 309 310 310 311 311 309 308 309 310 308 308 307 306 304 303 304 304 304 303 303 303 303 303 302 302 302 302 301 301 301 300 299 298 297 296 295 294 293 293 293 293 292 291 290 290 289 288 287 286 286 286 286 286 286 286 285 285 284 284 284 284 285
303 303 304 305 305 306 307 308 309 309 309 309 308 307 307 308 307 306 305 304 304 304 304 303 303 303 303 303 302 302 302 301 302 301 301 300 300 300 299 298 297 296 295 294 293 293 293 293 292 291 290 289 288 288 287 286 286 286 286 285 285 285 285 286 285 285 285 284 284
301 301 302 302 302 303 305 306 306 307 307 307 306 306 306 306 305 305 304 304 304 304 303 302 302 302 302 302 301 301 301 301 301 301 301 300 300 299 298 297 296 295 294 294 293 293 293 293 292 291 290 288 288 287 287 286 286 286 286 286 286 286 286 287 287 286 286 285 285
298 299 300 300 301 302 303 304 304 304 304 304 303 303 303 303 303 303 304 304 303 303 302 301 301 301 301 301 301 300 300 300 300 300 300 299 299 298 297 297 295 295 294 294 293 293 293 293 292 291 290 289 288 287 286 286 286 287 287 287 287 287 287 288 288 287 286 285 286
298 298 298 298 300 301 302 303 302 302 302 302 300 300 301 301 301 302 302 302 302 301 300 299 299 300 300 299 299 299 299 299 299 299 298 298 297 297 296 296 295 294 293 293 292 292 292 292 291 290 290 289 288 287 287 286 286 287 287 288 288 288 289 289 289 288 287 287 287
297 297 297 298 299 300 300 300 300 300 299 299 298 298 299 299 299 300 300 300 299 298 298 297 298 298 298 298 298 298 298 298 298 297 297 297 296 296 295 295 294 293 292 291 291 291 291 291 290 290 289 289 289 288 287 287 287 287 287 288 289 289 289 290 290 289 288 287 287
296 296 297 297 298 298 298 298 298 298 297 297 297 297 297 297 297 298 299 298 298 297 297 296 296 297 297 297 297 297 297 297 297 297 297 296 295 294 294 294 293 292 291 290 290 290 290 290 290 289 289 289 289 289 288 288 288 288 288 289 289 290 290 290 290 290 289 288 288
296 295 296 297 297 297 297 296 296 296 296 296 295 295 296 296 296 297 298 297 297 297 296 295 295 296 296 296 296 296 296 296 296 296 295 295 294 293 292 292 291 291 290 289 290 290 290 290 289 289 289 289 289 289 289 289 289 289 289 289 289 290 290 290 290 290 290 289 289
294 295 295 296 296 296 296 296 295 295 294 294 294 294 294 294 295 296 296 296 296 296 296 295 294 294 295 294 294 295 296 295 294 294 293 292 291 291 290 290 290 289 289 289 289 290 290 290 289 289 289 289 289 289 289 289 290 290 290 290 290 290 290 290 290 290 290 290 290
294 294 294 295 295 295 295 295 295 294 293 292 293 293 293 293 294 295 295 295 296 296 295 294 294 293 293 293 293 293 293 293 292 291 291 290 289 289 289 288 288 288 288 289 289 290 290 290 289 289 289 289 289 289 289 289 290 290 290 290 290 290 290 290 290 290 290 289 289
293 293 293 294 294 294 294 294 293 292 292 292 292 292 293 292 293 294 295 294 294 294 293 293 293 292 292 292 292 291 291 292 290 289 288 288 288 287 287 287 288 288 288 289 289 290 290 289 289 289 288 288 289 289 289 290 290 290 290 290 290 290 290 290 290 289 289 289 289
291 291 292 293 293 293 293 293 292 292 291 291 291 291 292 292 292 292 292 292 293 293 293 292 292 291 291 290 290 290 289 289 288 287 287 287 287 287 287 286 287 287 287 287 288 288 288 288 288 288 287 287 287 288 289 290 290 290 290 290 290 290 290 289 289 289 289 288 288
289 290 290 292 293 294 295 293 292 291 291 291 290 290 290 291 290 290 291 291 292 292 291 291 290 289 289 289 289 288 288 287 286 286 286 285 286 286 285 285 286 286 286 287 287 286 286 287 287 286 286 286 286 287 289 289 290 290 290 289 289 289 288 288 288 287 287 287 286
288 289 290 291 292 292 292 292 291 291 291 290 289 289 289 289 289 290 290 290 290 290 289 289 288 288 287 287 287 288 288 287 286 286 285 285 285 284 285 285 285 286 286 286 287 288 287 287 286 286 286 286 286 287 288 288 289 289 289 288 288 288 288 287 286 286 285 285 285
287 289 290 290 290 291 291 291 290 290 289 288 288 288 289 289 289 289 289 289 288 288 288 288 287 287 286 286 286 286 286 286 286 286 285 285 284 284 284 285 285 286 287 288 293 295 296 294 291 288 286 286 286 287 288 288 288 288 288 288 288 288 288 287 286 286 285 284 285
287 288 288 288 289 289 289 288 288 288 288 288 288 288 288 288 288 288 288 288 287 287 287 287 287 287 287 286 286 286 285 285 285 285 285 285 285 285 285 285 286 286 287 291 296 298 300 300 299 296 291 286 287 288 288 288 288 288 288 288 288 287 287 287 287 287 287 286 285
287 287 286 287 287 287 287 286 287 287 288 288 288 287 287 287 288 288 288 287 286 286 286 286 287 288 289 286 286 285 285 284 283 284 284 284 286 286 285 286 286 286 288 293 297 299 301 301 302 301 297 291 290 289 290 291 289 289 288 287 287 287 287 287 287 287 288 287 285
286 286 286 287 287 286 286 286 287 287 287 287 287 287 287 287 287 287 287 286 286 286 286 285 286 286 286 285 284 284 284 283 283 283 284 285 286 286 285 286 286 287 291 296 299 300 301 302 302 302 301 299 294 291 291 291 290 289 289 288 287 287 286 286 287 287 287 286 285
285 286 286 286 286 286 286 286 286 287 286 286 286 286 287 287 287 286 286 286 286 285 285 284 285 285 284 284 283 283 283 283 283 283 283 284 285 285 285 286 286 289 293 298 300 301 301 302 302 302 302 302 298 295 293 291 291 290 290 290 289 288 287 286 287 287 286 286 286
285 285 285 285 285 285 285 285 285 286 286 286 286 286 286 286 286 286 285 285 284 284 284 283 284 284 284 283 282 283 283 282 282 283 283 284 285 286 286 288 287 289 292 298 299 300 301 301 301 302 301 301 299 297 295 293 291 290 290 290 288 286 286 286 285 285 286 286 286
284 284 285 285 285 285 285 284 285 285 285 286 286 286 286 286 285 284 283 282 283 284 285 283 283 283 282 281 282 282 283 282 282 282 283 284 287 288 287 287 287 289 292 298 299 300 300 300 301 301 301 301 299 297 295 293 291 290 290 289 287 286 286 285 285 285 285 284 285
283 284 285 286 285 284 284 284 284 285 285 285 285 285 285 284 282 281 281 282 283 284 284 283 284 283 283 282 282 282 282 282 283 283 284 284 285 286 286 287 287 289 292 297 298 299 299 300 300 300 300 299 298 296 293 292 290 289 289 287 286 285 285 286 286 285 284 284 284
284 284 285 285 284 284 284 284 284 284 285 285 284 284 283 282 282 281 282 283 283 283 283 283 284 284 284 283 283 283 283 284 285 286 287 287 286 286 286 287 287 290 294 297 298 298 298 299 299 299 299 298 297 294 291 289 289 289 288 287 286 285 284 283 284 284 284 284 285
284 284 284 284 284 284 284 284 284 284 285 284 284 283 282 282 282 283 283 284 283 281 281 281 282 282 282 282 282 283 284 287 286 285 284 284 284 284 285 286 286 290 294 297 297 297 297 298 298 298 298 298 295 292 289 287 287 287 286 285 285 284 283 283 283 283 283 284 284
284 284 284 283 283 283 283 284 284 284 284 284 283 283 282 282 282 282 283 285 283 281 280 280 280 280 280 280 281 282 284 286 284 284 283 283 283 284 285 285 285 289 294 295 296 296 297 297 297 297 297 296 294 290 288 286 286 285 285 284 284 283 283 283 283 282 282 282 283
284 284 284 283 283 283 283 284 284 284 284 284 283 283 282 281 281 281 282 285 283 282 280 280 280 280 281 281 281 283 284 283 283 283 283 284 284 284 284 284 284 287 292 294 295 295 296 296 296 296 296 294 291 289 287 286 286 285 284 283 283 283 283 283 283 282 281 281 282
284 284 284 284 283 283 283 283 284 284 284 283 282 282 282 281 281 281 281 284 283 282 281 280 281 281 282 282 281 282 283 282 283 283 284 285 285 284 283 283 283 285 289 293 294 294 295 295 295 295 294 292 289 287 286 286 285 285 284 283 283 283 282 283 283 282 281 281 281
283 284 284 284 283 283 283 283 283 283 283 282 281 281 280 280 280 281 282 284 282 282 282 281 281 282 281 281 282 282 282 282 283 284 284 283 283 283 282 282 282 283 287 291 293 293 294 295 295 295 294 291 288 287 286 286 285 284 284 284 284 283 283 284 283 282 282 281 285
283 283 284 284 283 283 283 283 282 282 282 282 281 281 280 280 280 281 282 283 281 281 282 282 282 282 282 283 283 283 282 282 282 282 282 281 281 283 284 283 282 283 285 290 292 293 294 294 295 295 294 292 288 287 286 285 284 284 284 284 284 284 283 283 283 283 282 282 288
283 283 283 283 283 283 283 282 282 281 281 281 281 281 281 281 281 282 282 280 279 280 281 281 281 282 283 285 283 282 281 280 280 280 280 281 282 285 286 283 281 281 283 288 291 293 293 294 294 294 293 291 288 286 285 284 284 283 283 284 284 284 284 284 283 283 283 282 285
283 283 283 283 283 283 283 282 282 281 280 280 281 281 282 283 281 280 280 279 279 279 280 281 281 281 281 283 281 280 279 279 279 279 279 281 281 283 284 281 279 279 281 286 290 292 293 293 293 293 293 291 288 286 284 283 283 283 283 283 283 284 284 283 284 283 283 282 282
Wind_Speed
8 7 7 6 6 6 6 5 5 5 5 6 6 6 6 6 6 6 6 6 6 6 6 6 6 6 6 7 8 9 9 9 9 9 9 10 10 10 10 9 9 9 8 8 7 7 7 7 6 5 4 4 4 4 3 3 3 4 5 5 5 4 4 5 6 6 6 5 4
8 8 7 7 6 6 5 5 5 5 5 5 5 6 6 6 6 6 6 7 6 6 6 6 6 6 7 8 9 9 9 9 9 9 9 10 10 9 9 8 8 8 8 8 8 7 6 6 6 5 4 4 4 4 4 3 3 4 5 6 5 4 4 5 6 6 6 5 4
8 7 7 7 6 6 5 5 5 5 5 5 5 5 6 6 6 6 6 7 6 6 5 5 6 7 8 9 8 8 9 10 10 9 9 9 9 9 8 8 7 7 7 7 7 7 6 6 6 5 5 4 4 5 4 3 3 4 5 6 4 3 3 4 5 4 4 4 4
8 7 7 7 8 8 7 6 6 6 6 5 4 5 5 5 5 5 5 6 6 6 6 6 6 7 8 8 8 8 9 10 10 9 9 9 8 8 8 7 7 7 7 7 7 7 7 7 6 5 5 5 6 5 5 4 4 4 4 4 3 3 4 4 4 3 3 3 3
7 8 8 8 9 9 8 7 7 6 6 5 5 5 5 5 5 5 5 5 6 7 7 7 7 7 7 7 8 8 9 9 10 9 9 9 8 7 7 6 7 7 7 7 7 7 7 7 5 5 5 5 5 5 4 4 4 4 3 2 2 3 3 4 3 3 2 3 2
7 7 7 7 8 8 7 6 7 7 6 5 6 6 6 5 5 5 6 7 7 7 8 8 7 6 6 7 7 8 8 9 9 9 9 8 7 6 6 6 7 7 6 7 7 7 7 7 5 4 4 4 4 4 4 4 5 4 3 2 2 2 3 3 3 2 2 3 3
7 7 7 7 8 7 6 6 7 7 6 6 7 8 8 7 7 8 8 7 6 6 6 7 7 6 7 7 7 8 8 8 8 9 9 8 7 7 6 7 7 7 7 7 7 7 7 6 5 4 4 4 4 4 4 4 4 4 4 4 3 2 2 3 2 2 3 4 5
6 7 7 7 7 8 8 7 7 7 6 6 8 9 10 9 9 9 8 7 6 6 6 6 7 8 8 8 8 9 9 9 9 8 8 8 7 7 7 7 7 7 7 7 7 7 6 6 5 5 5 4 4 4 4 4 5 5 5 5 3 2 2 2 2 2 3 5 6
5 5 6 6 6 7 8 7 8 8 8 8 9 9 10 9 9 9 8 7 7 6 6 6 7 8 8 9 9 9 9 9 9 8 8 7 8 7 7 6 7 7 7 6 7 7 7 5 5 5 5 4 4 4 4 5 5 5 5 5 4 3 2 2 2 3 4 5 7
5 5 5 5 6 6 7 7 7 8 8 8 9 9 9 9 9 9 8 7 6 6 6 7 7 8 8 9 9 8 8 8 8 8 8 8 8 8 8 7 7 7 7 6 6 7 6 5 5 5 5 5 5 5 5 5 6 6 6 5 4 4 3 3 3 4 5 6 8
5 5 5 5 5 6 6 6 6 7 7 8 8 8 8 8 8 7 7 5 5 6 7 7 8 8 8 8 8 8 7 7 7 7 8 8 8 9 8 8 7 7 7 6 6 6 6 5 6 6 6 5 5 5 5 5 6 6 6 5 5 5 5 5 5 5 5 6 8
4 4 4 4 4 5 6 6 6 6 6 7 7 7 7 7 7 6 6 5 6 7 7 6 7 8 8 7 7 7 7 6 7 7 7 8 8 8 8 8 7 7 7 7 6 6 5 6 6 7 6 5 5 5 5 6 6 6 6 6 5 6 6 7 7 6 5 6 7
3 3 3 3 3 4 5 6 6 6 6 6 6 6 6 6 6 6 6 6 7 7 6 5 6 6 7 7 6 6 6 6 7 7 7 7 7 7 7 7 7 7 7 6 6 6 6 6 7 7 7 6 5 5 6 6 7 7 7 7 7 7 8 9 9 7 6 6 7
2 2 2 3 3 4 5 5 5 5 5 5 5 5 5 4 4 5 6 7 6 6 5 4 5 5 6 6 6 6 6 6 6 7 7 7 7 7 7 7 7 7 6 6 6 6 7 7 7 7 8 8 7 6 6 6 7 7 8 8 9 9 10 10 10 8 7 7 8
2 2 2 3 3 3 4 4 4 4 4 4 3 3 3 3 3 4 5 5 5 4 4 4 4 5 5 6 6 6 6 6 6 6 7 7 7 7 7 7 7 7 6 6 6 7 7 8 8 8 8 8 8 7 7 7 7 8 8 9 10 10 11 11 10 9 8 8 9
3 2 2 3 3 3 3 3 3 3 3 3 2 2 2 3 3 3 4 5 4 3 3 5 5 5 4 5 5 5 5 5 6 6 7 7 7 7 7 7 7 7 7 7 6 7 7 7 7 8 8 8 8 8 7 7 7 8 8 9 10 10 10 11 10 9 9 9 9
3 2 2 3 3 3 3 3 2 2 2 2 2 2 2 2 2 3 4 4 4 4 4 5 5 4 4 4 4 4 5 5 5 6 6 7 7 7 7 7 7 7 7 7 7 7 7 7 6 7 7 8 8 8 8 8 8 8 9 9 9 10 10 11 10 10 10 9 10
2 2 2 3 3 3 3 3 2 2 2 2 2 2 2 2 3 3 3 4 4 5 5 5 4 4 4 4 3 4 4 5 5 6 6 6 6 6 6 6 6 6 6 7 7 7 8 7 6 6 6 7 7 7 7 7 7 8 9 9 9 10 10 10 11 10 10 10 11
2 2 2 3 3 4 3 3 3 3 2 2 2 2 2 2 3 3 3 3 4 5 5 5 3 3 3 3 3 3 4 4 5 5 5 4 4 5 5 6 5 5 6 6 7 7 7 7 7 6 6 6 6 6 6 7 7 8 8 9 9 9 10 10 10 10 10 10 11
2 2 2 3 3 3 3 3 3 2 2 2 2 2 2 2 2 3 3 3 3 4 4 4 4 3 3 3 3 3 3 3 3 4 4 3 4 4 5 5 5 5 5 6 6 7 7 7 6 6 6 6 7 7 7 7 7 8 8 8 9 9 10 10 10 10 10 10 10
1 2 2 2 3 3 3 2 2 2 2 2 2 2 2 2 2 2 3 3 2 3 3 4 4 4 3 3 3 3 2 2 2 3 3 3 4 4 4 4 5 5 5 5 6 6 6 6 6 6 6 6 7 7 7 7 7 8 8 8 8 9 10 10 10 10 10 10 10
0 1 1 1 2 2 2 2 2 3 3 2 2 2 2 2 1 1 1 2 3 3 3 3 3 4 4 4 4 3 2 2 2 2 2 2 3 3 3 3 4 4 5 5 5 5 6 5 5 5 5 6 6 7 7 7 8 8 8 9 9 9 9 9 9 9 9 9 9
1 1 0 0 1 2 2 3 3 3 3 3 2 2 2 2 2 2 2 3 3 3 3 3 3 3 3 3 3 3 3 2 2 1 1 1 1 1 1 1 3 4 5 5 5 5 5 4 4 4 4 5 6 7 7 7 8 8 8 9 9 9 9 9 8 8 8 8 8
1 1 1 1 2 2 3 3 3 3 3 3 3 3 3 3 3 3 3 4 3 3 3 3 3 3 3 3 3 3 3 3 2 1 1 1 1 1 0 1 2 3 4 4 4 4 4 4 4 4 4 4 5 6 6 7 7 8 8 9 9 9 9 9 8 8 8 8 8
2 2 2 3 3 3 3 3 3 3 3 3 3 3 3 3 3 3 3 4 4 4 4 3 3 3 3 3 3 3 3 2 2 2 1 1 1 1 0 0 2 2 3 3 5 6 7 6 5 4 4 4 5 5 6 6 7 7 8 9 9 9 9 9 9 9 8 8 8
2 3 3 3 4 4 4 4 4 3 3 3 3 4 4 3 3 4 4 4 4 4 3 3 3 3 3 3 3 3 3 2 2 2 1 0 0 1 1 1 1 2 2 3 6 8 9 9 9 7 6 4 5 5 6 6 7 7 8 8 8 9 9 10 10 10 9 8 8
3 3 4 4 5 5 5 4 4 4 4 4 4 4 4 3 4 4 4 4 3 3 3 3 3 3 3 3 3 3 3 2 2 2 1 1 0 1 2 2 2 2 2 4 7 8 10 11 12 11 9 5 5 5 6 6 7 7 7 7 8 8 9 10 10 11 10 9 8
4 4 4 5 6 5 4 4 4 4 4 4 4 4 4 4 5 5 4 4 3 3 3 3 3 3 2 3 3 3 2 2 2 2 1 1 1 1 2 2 2 3 4 6 8 10 11 12 13 14 12 9 6 5 6 6 6 6 6 6 7 8 8 9 9 9 9 9 9
4 4 5 6 5 4 4 4 5 4 4 4 4 4 5 5 5 4 4 3 3 3 3 2 2 2 2 3 2 2 2 2 2 2 2 1 1 2 2 3 3 4 6 9 10 11 12 13 14 15 15 14 9 6 5 5 5 5 6 6 6 7 7 8 8 8 8 9 9
4 5 6 7 6 5 5 4 4 4 4 4 5 5 6 5 5 4 4 3 3 3 2 1 2 2 3 2 2 2 2 2 2 2 2 1 2 3 3 3 3 4 6 9 10 12 13 14 14 15 16 16 12 8 6 5 5 5 5 6 6 7 7 8 8 8 8 8 8
5 6 6 7 6 5 4 4 4 4 4 5 6 6 5 5 4 3 3 2 2 2 2 2 3 3 3 2 2 2 2 2 2 2 1 1 2 3 4 4 4 5 6 9 11 12 13 14 15 15 16 16 12 9 6 6 6 5 5 6 6 7 7 7 7 8 8 8 8
5 6 7 7 6 5 4 4 4 4 5 6 6 5 5 4 3 2 2 1 2 2 2 3 3 3 2 2 2 2 2 2 2 2 1 1 2 3 4 4 4 5 7 10 11 13 14 14 15 16 16 17 13 9 7 6 6 6 6 6 7 7 7 6 6 7 8 9 8
6 7 7 7 6 5 4 4 4 5 5 6 5 4 4 3 2 2 2 2 2 2 3 3 2 2 1 1 2 2 2 2 2 2 2 2 2 3 4 4 4 6 8 11 13 14 15 15 16 16 17 17 13 9 7 6 5 5 6 6 6 6 6 7 7 7 8 8 8
6 7 7 6 5 4 4 3 4 4 5 5 4 4 3 3 2 2 2 2 2 2 2 2 2 2 1 1 1 1 2 2 2 2 2 2 2 3 3 4 4 6 9 12 14 15 16 16 16 17 17 17 11 8 6 6 5 6 6 7 7 6 6 7 7 8 8 8 8
6 7 7 6 5 4 4 4 4 5 5 4 4 3 3 3 3 2 2 2 2 2 2 2 2 2 2 1 1 1 2 2 2 2 2 2 2 3 4 4 5 7 10 13 14 15 16 16 17 17 17 14 9 6 6 6 6 6 7 7 7 7 7 7 7 7 8 8 8
5 6 6 5 5 4 4 4 5 5 4 4 3 3 3 2 2 2 2 2 2 2 2 2 2 2 2 2 2 1 1 1 2 3 3 3 3 3 4 5 5 8 11 13 15 15 16 16 17 17 15 11 7 5 5 5 6 6 7 7 7 7 8 8 7 7 7 7 7
4 6 6 5 5 4 4 4 4 4 4 3 3 2 2 2 2 2 2 2 2 3 2 2 2 2 2 2 2 1 1 1 2 3 3 4 4 4 4 5 6 7 10 13 14 15 16 16 17 16 14 9 6 5 5 5 5 5 6 7 7 7 7 7 7 7 7 7 7
3 5 6 6 5 4 4 4 4 4 3 2 2 2 2 2 2 2 2 2 2 2 2 2 2 2 2 2 2 2 2 1 2 3 3 4 4 4 4 5 5 6 9 12 14 15 16 16 17 16 14 8 6 6 5 5 5 5 6 6 6 6 6 6 6 6 6 7 10
3 5 6 6 5 5 5 5 4 3 3 2 2 2 2 2 2 2 2 2 2 2 2 2 2 2 2 2 2 3 3 3 2 3 3 3 4 4 4 4 5 6 8 12 14 15 16 16 17 17 15 9 7 5 5 5 5 6 6 6 6 6 6 6 5 5 6 7 11
4 5 6 6 5 5 5 5 4 3 2 2 2 2 2 2 1 1 1 2 2 2 2 1 1 2 2 3 3 3 3 4 3 3 3 3 4 5 6 4 5 6 8 11 14 15 16 17 17 17 15 9 6 5 5 5 5 6 6 6 6 6 5 5 5 5 5 6 8
4 5 6 6 6 6 6 5 3 2 2 2 2 2 1 1 1 2 2 2 2 2 2 1 2 2 2 3 3 3 4 4 4 4 3 4 5 6 6 4 5 6 7 9 13 15 16 17 17 18 16 11 7 5 5 5 5 6 6 6 6 5 5 5 4 4 4 4 5
Wind_Direction
193 193 190 186 187 189 193 196 191 187 183 184 186 187 187 188 193 195 196 195 199 203 204 206 208 210 210 207 205 207 209 211 210 210 209 208 209 208 206 204 201 199 197 194 187 183 181 183 181 182 186 192 194 195 192 180 174 179 186 194 197 195 192 195 204 208 208 211 213
194 192 189 185 186 186 188 192 189 187 185 186 186 186 186 189 193 195 196 197 201 203 204 207 208 209 208 208 206 206 208 209 209 211 212 212 212 210 207 205 203 200 196 191 185 182 182 180 179 181 186 190 190 193 194 183 170 175 185 197 198 194 194 202 211 212 210 212 214
193 190 187 184 183 183 185 189 189 187 185 186 186 185 186 191 194 196 197 199 201 202 203 207 208 207 207 207 207 207 207 209 208 210 213 215 213 211 208 206 204 201 198 191 187 185 183 179 181 183 186 188 190 194 195 185 172 178 188 199 197 194 197 211 215 214 212 215 215
190 188 186 186 183 183 185 188 187 186 184 184 182 183 187 192 194 197 197 198 199 201 205 207 208 207 207 206 207 208 209 209 208 210 213 217 214 210 207 203 201 200 198 192 190 187 183 179 183 186 187 185 189 194 195 182 178 185 194 198 193 194 202 215 215 213 211 216 215
191 190 189 188 185 186 186 185 183 183 183 179 178 183 189 194 195 195 195 196 201 205 207 206 207 207 207 205 206 208 210 211 210 212 214 217 214 209 204 200 199 198 197 192 191 188 184 179 185 189 188 185 190 193 190 173 176 186 198 198 193 196 203 215 215 211 208 214 218
192 192 191 189 186 186 186 183 181 181 181 178 180 186 191 194 194 195 197 201 204 205 204 204 206 207 206 204 205 208 211 213 213 213 214 216 213 206 200 200 198 197 195 193 191 187 183 180 187 190 189 184 190 189 177 161 173 185 199 209 206 201 202 214 213 208 209 220 228
188 190 191 190 186 186 186 183 181 179 178 178 184 190 193 194 195 197 200 202 202 201 200 202 205 205 205 202 206 208 211 213 214 214 213 214 210 203 199 199 198 197 195 193 190 187 184 182 186 191 191 187 188 181 170 159 172 186 201 215 213 203 199 213 211 208 213 225 231
187 188 190 189 187 187 186 184 180 179 181 186 192 195 196 195 196 197 199 199 199 199 199 201 203 204 204 203 206 209 210 212 214 214 213 212 208 203 200 198 198 199 198 193 189 187 186 186 189 191 190 188 190 183 173 164 174 189 205 217 219 212 202 210 213 215 220 226 233
190 193 193 191 190 189 188 185 182 183 187 193 197 198 198 196 196 196 197 200 201 199 197 201 204 204 204 205 208 209 210 210 212 213 213 211 208 205 203 200 200 202 201 194 190 188 186 188 194 195 192 189 191 185 175 166 178 194 208 217 222 224 221 218 217 220 224 227 235
192 195 196 195 196 193 189 188 187 188 190 195 198 198 198 197 196 197 198 201 198 196 198 203 203 204 205 208 210 210 211 211 212 212 212 211 209 208 206 204 203 204 203 197 192 188 187 190 197 199 196 191 189 183 176 170 182 197 211 219 222 229 235 234 223 222 226 229 235
191 193 194 196 197 192 188 187 192 193 195 198 198 198 198 198 198 198 198 195 192 196 201 203 201 202 205 209 210 210 210 210 211 210 210 212 212 211 209 207 204 204 203 199 192 189 190 196 199 200 198 194 187 182 177 176 186 200 212 222 223 229 235 240 230 226 226 229 235
187 189 190 192 189 185 183 187 193 197 198 199 198 198 198 199 198 196 193 189 193 200 204 201 198 200 204 209 209 208 208 208 208 209 209 211 213 212 210 208 206 204 203 198 192 191 195 202 202 201 199 197 191 185 182 182 190 202 215 225 225 230 236 242 237 232 228 228 235
170 172 174 176 172 175 180 187 191 195 197 199 197 196 197 199 195 190 187 189 197 201 203 198 196 199 203 207 206 205 204 205 206 207 209 210 211 211 210 210 206 204 202 199 195 196 199 204 203 202 201 200 198 194 189 186 193 204 215 224 227 232 237 242 241 238 233 231 237
131 139 146 148 155 165 176 184 187 190 192 195 195 193 192 194 189 186 186 192 198 199 195 192 195 200 203 204 202 202 201 202 202 205 207 209 208 208 208 209 205 203 201 200 198 198 200 204 203 202 202 203 203 201 196 191 198 206 214 222 227 232 237 242 242 240 237 236 240
103 112 121 128 141 155 168 177 180 181 184 189 189 185 182 183 182 181 183 190 194 191 185 184 195 201 203 200 199 197 197 196 198 201 205 208 206 205 205 206 203 201 199 197 198 199 201 202 202 202 203 205 206 204 201 200 205 210 216 221 227 232 237 241 242 241 239 238 242
93 98 106 119 135 148 160 169 169 171 174 181 176 170 168 171 171 173 176 182 183 180 179 185 194 198 200 198 194 192 191 193 195 200 204 207 205 204 204 204 202 199 197 195 198 201 204 204 202 202 203 206 208 207 206 206 211 216 221 225 229 233 238 242 243 243 242 240 243
90 97 107 122 137 147 156 161 157 160 165 169 160 158 160 159 159 165 171 175 174 176 183 191 191 191 192 195 191 187 187 192 196 201 205 207 204 203 203 204 202 199 195 193 197 203 207 209 206 204 204 208 211 211 211 211 215 220 225 229 232 236 240 243 245 246 245 244 244
94 103 115 130 144 153 158 159 157 160 163 162 157 155 153 150 157 164 171 172 172 177 183 189 187 183 182 186 187 186 187 192 199 203 206 206 202 200 202 204 202 197 193 192 198 203 207 211 210 208 208 212 216 217 217 216 220 225 229 233 236 239 242 245 247 248 248 248 248
108 119 132 145 155 160 162 162 161 161 160 154 150 146 146 151 158 163 169 177 177 177 177 176 174 173 175 177 181 185 188 191 196 200 202 199 196 197 200 202 200 195 192 194 201 206 209 210 209 210 212 217 221 224 225 225 228 231 235 238 241 243 245 247 249 250 250 250 252
127 143 157 164 164 165 165 164 159 151 143 134 134 139 145 154 157 164 171 181 177 169 163 161 162 164 167 168 171 177 183 181 183 188 190 188 189 194 198 198 197 195 194 197 204 209 212 212 211 212 214 219 224 229 232 233 236 239 241 243 245 246 248 249 251 251 252 252 254
150 167 173 172 167 165 161 150 134 122 113 111 119 128 135 137 149 162 169 168 152 145 146 152 157 161 164 163 165 166 164 149 159 170 177 180 189 195 197 193 194 195 197 201 208 213 216 216 215 216 217 221 226 230 234 237 241 243 246 248 249 250 251 252 253 254 254 254 254
182 194 184 171 159 146 130 107 99 94 93 91 94 98 103 106 116 122 121 114 117 124 132 143 151 156 159 159 159 153 141 120 127 145 162 173 187 194 194 188 191 196 202 207 213 217 220 222 221 220 220 224 230 234 237 240 244 247 250 252 253 254 255 255 256 256 256 256 256
339 336 354 94 106 102 97 89 84 81 78 74 73 77 82 86 82 77 77 83 96 106 112 117 126 135 141 145 144 139 132 121 115 111 115 124 145 158 170 177 192 203 209 212 213 215 219 226 230 229 227 228 234 239 243 244 248 251 255 257 259 259 260 259 259 258 258 258 257
358 10 31 52 70 78 80 78 74 72 69 66 67 72 76 78 75 75 75 77 82 88 92 93 94 99 105 110 118 124 130 134 135 126 87 55 58 62 95 181 206 214 218 219 214 212 214 221 230 235 237 236 240 244 248 249 252 255 258 261 263 265 265 265 262 260 259 258 257
22 39 46 51 60 64 66 66 68 69 68 66 67 70 73 76 78 79 79 76 74 77 82 84 82 82 85 88 91 96 106 119 131 134 125 54 32 28 13 244 232 233 235 237 233 231 229 229 228 229 232 237 242 248 252 253 253 254 256 260 263 266 269 270 267 263 258 255 254
41 47 48 49 57 60 61 62 69 72 73 70 70 71 73 76 80 82 83 79 73 71 73 76 76 78 80 80 77 73 71 72 85 100 111 107 358 337 314 278 260 258 259 258 253 250 249 249 248 244 236 227 236 245 252 255 251 250 251 254 258 262 266 269 270 268 263 259 254
53 53 52 54 60 61 62 63 71 74 75 75 76 77 78 78 79 80 81 79 73 67 61 59 60 66 71 71 72 69 63 53 57 66 77 78 351 307 296 286 278 272 269 268 268 269 269 269 269 268 262 241 234 238 247 255 254 252 250 251 253 256 258 262 267 269 270 269 264
58 59 59 60 61 61 60 63 72 76 79 80 82 82 81 78 79 80 79 76 69 61 53 45 44 49 56 60 62 61 58 49 50 55 57 52 336 297 290 288 288 285 283 282 283 284 284 284 284 284 282 277 262 248 245 252 256 256 254 251 252 251 253 256 260 265 268 270 269
58 63 65 67 66 62 60 63 70 76 80 82 82 81 79 78 77 76 74 68 61 55 48 37 35 43 50 52 49 47 44 40 40 42 42 27 331 299 288 287 291 293 295 296 296 295 294 293 292 292 291 290 286 276 264 258 258 258 257 255 252 251 251 252 256 260 263 265 267
57 67 72 72 68 64 59 60 66 71 76 80 81 81 79 76 71 68 64 60 56 51 44 42 51 55 54 49 44 38 33 26 30 33 28 356 314 298 292 292 295 300 302 304 302 301 299 298 297 296 295 295 293 289 284 277 272 268 266 264 259 255 252 253 255 257 260 263 266
63 72 76 74 69 65 61 59 63 69 74 78 80 80 78 74 66 60 54 56 53 46 43 51 58 59 54 42 40 34 23 12 16 18 8 324 299 295 297 303 305 305 305 306 304 303 302 301 300 300 300 300 298 294 290 286 282 279 276 274 269 263 259 257 256 256 257 259 262
69 76 78 78 73 69 65 63 66 71 74 76 76 75 72 67 59 48 40 45 52 51 51 55 59 55 45 31 29 23 13 2 354 346 337 321 307 305 307 311 309 307 306 307 306 306 306 306 306 306 306 307 303 300 296 292 289 286 283 280 275 270 266 263 262 260 257 257 257
73 78 80 81 79 75 70 66 69 71 72 71 69 67 64 59 49 37 32 34 45 53 59 65 68 64 46 26 16 6 358 351 340 331 328 328 324 320 316 313 308 305 306 309 311 312 313 313 313 312 312 313 310 307 304 300 297 295 292 288 283 278 272 267 266 264 263 261 259
77 80 81 82 81 78 73 68 69 70 70 66 59 53 49 51 46 40 33 31 41 52 59 64 69 71 69 59 38 12 354 345 340 337 337 338 337 329 319 308 304 306 310 314 317 318 319 319 318 317 316 316 313 311 309 305 302 300 297 294 291 287 280 273 268 265 264 262 262
84 86 85 82 80 78 74 69 68 68 67 64 53 43 38 42 45 42 34 29 44 51 51 47 52 53 52 49 49 27 358 338 336 335 337 340 338 328 317 307 304 311 316 320 322 323 324 323 322 322 321 320 317 313 309 306 303 300 297 294 293 289 285 280 274 269 264 261 261
90 94 93 87 81 76 72 70 68 66 64 60 51 41 33 32 30 23 19 28 45 47 41 31 34 33 31 22 24 18 3 338 332 330 329 332 332 325 317 311 311 316 320 324 326 328 329 329 328 327 326 324 320 315 311 307 304 301 299 297 295 291 288 284 279 275 270 265 261
89 97 98 92 82 74 69 68 69 67 63 55 45 36 28 25 18 9 9 28 45 44 35 24 25 21 17 8 359 348 339 336 338 332 329 329 329 325 320 316 314 316 321 327 331 334 335 335 335 334 333 329 324 320 316 313 310 307 305 303 299 295 291 287 284 280 277 273 269
79 92 96 94 85 77 69 67 69 69 65 52 35 23 18 22 19 11 12 31 49 46 34 22 17 10 2 355 343 334 331 339 348 342 335 331 330 327 323 319 316 317 323 332 339 342 343 342 341 341 340 334 330 325 322 320 318 316 313 311 308 304 300 296 293 289 286 282 283
76 87 93 94 89 82 73 67 67 66 62 49 31 20 18 24 21 16 18 37 61 62 49 28 8 356 349 350 349 344 340 342 351 350 342 330 325 327 331 327 322 323 330 340 346 348 349 348 346 345 343 338 335 331 329 328 325 323 321 319 316 313 309 305 303 301 297 292 297
79 84 87 90 88 83 77 69 62 55 49 47 37 28 23 24 22 18 24 43 63 69 64 41 8 354 352 359 1 355 348 345 350 350 344 330 328 338 344 341 332 330 335 343 349 352 352 350 348 346 344 339 338 337 337 336 332 329 326 323 321 318 315 313 312 311 310 306 308
75 77 78 80 80 79 78 75 66 53 44 48 45 34 21 19 23 24 27 38 50 55 55 41 15 4 3 10 15 8 360 352 350 348 344 340 341 348 352 350 341 336 337 343 350 353 352 350 347 345 343 339 339 340 342 341 337 331 326 322 319 317 317 318 320 321 321 318 315